• Join FlightAware (Why Join?)
  • Login
  • US Flag GB Flag 
12:34 EDT


 

Airport Tracker/Info


-or-


 

Live Flight TrackerFlight Track Log ✈ SWA542 ✈ 08-Apr-2013 ✈ KMCO - KMDW

Flight Track Log - Related Links

Times and Time Zones

All times are in EDT time to prevent confusion due to time zone crossing. See the SWA542 flight status page for this flight to view local times or setup timezone preferences in your user account.

Time Position Orientation Groundspeed Altitude Reporting Facility
EDT Latitude Longitude Course Direction KTS MPH feet Rate Location/Type
19:28 28.4000 -81.3000 221° Southwest 165 190 700  Level Orlando TRACON
19:29 28.3667 -81.3333 221° Southwest 235 270 2,500 2,100 Climbing Orlando TRACON
19:30 28.3333 -81.4000 240° Southwest 277 319 4,900 2,700 Climbing Orlando TRACON
19:32 28.3408 -81.5317 274° West 283 326 9,600 2,460 Climbing Jacksonville Center
19:33 28.3503 -81.6331 276° West 301 346 11,300 2,220 Climbing Jacksonville Center
19:34 28.3597 -81.7486 275° West 340 391 14,100 2,700 Climbing Jacksonville Center
19:35 28.3669 -81.8594 274° West 380 437 16,800 2,520 Climbing Jacksonville Center
19:36 28.3931 -81.9794 284° West 393 452 19,200 2,400 Climbing Jacksonville Center
19:37 28.4314 -82.0969 290° West 393 452 21,600 2,220 Climbing Jacksonville Center
19:38 28.5050 -82.1933 311° West 398 458 23,700 1,980 Climbing Jacksonville Center
19:39 28.6033 -82.2706 325° Northwest 403 464 25,600 1,860 Climbing Jacksonville Center
19:40 28.7103 -82.3528 326° Northwest 416 479 27,500 1,800 Climbing Jacksonville Center
19:41 28.8106 -82.4328 325° Northwest 423 487 29,300 1,860 Climbing Jacksonville Center
19:42 28.9089 -82.5083 326° Northwest 429 494 31,300 1,620 Climbing Jacksonville Center
19:43 29.0072 -82.5839 326° Northwest 429 494 32,600 1,260 Climbing Jacksonville Center
19:44 29.1056 -82.6619 325° Northwest 429 494 33,900 1,440 Climbing Jacksonville Center
19:45 29.2017 -82.7356 326° Northwest 429 494 35,500 1,020 Climbing Jacksonville Center
19:46 29.2958 -82.8117 325° Northwest 429 494 36,000 240 Climbing Jacksonville Center
19:47 29.3958 -82.8806 329° Northwest 429 494 36,000  Level Jacksonville Center
19:48 29.4942 -82.9308 336° Northwest 423 487 36,000  Level Jacksonville Center
19:49 29.6089 -82.9881 337° Northwest 428 493 36,000  Level Jacksonville Center
19:50 29.7153 -83.0408 337° Northwest 428 493 36,000  Level Jacksonville Center
19:51 29.8258 -83.0961 337° Northwest 428 493 36,000  Level Jacksonville Center
19:52 29.9364 -83.1492 337° Northwest 428 493 36,000  Level Jacksonville Center
19:53 30.0447 -83.2044 336° Northwest 428 493 36,000  Level Jacksonville Center
19:54 30.1553 -83.2600 337° Northwest 428 493 36,000  Level Jacksonville Center
19:55 30.2636 -83.3133 337° Northwest 422 486 36,000  Level Jacksonville Center
19:56 30.3742 -83.3692 336° Northwest 422 486 36,000  Level Jacksonville Center
19:57 30.4825 -83.4253 336° Northwest 422 486 36,000  Level Jacksonville Center
19:58 30.5950 -83.4814 337° Northwest 422 486 36,000  Level Jacksonville Center
19:59 30.7056 -83.5378 336° Northwest 422 486 36,000  Level Jacksonville Center
20:00 30.8242 -83.5989 336° Northwest 422 486 36,000  Level Jacksonville Center
20:01 30.9364 -83.6578 336° Northwest 422 486 36,000  Level Jacksonville Center
20:02 31.0489 -83.7147 337° Northwest 427 491 36,000  Level Jacksonville Center
20:04 31.2517 -83.8203 336° Northwest 427 491 36,000  Level Atlanta Center
20:05 31.3625 -83.8783 336° Northwest 421 484 36,000  Level Atlanta Center
20:06 31.4731 -83.9342 337° Northwest 421 484 36,000  Level Atlanta Center
20:07 31.5881 -83.9756 343° North 421 484 36,000  Level Atlanta Center
20:08 31.7092 -84.0047 348° North 431 496 36,000  Level Atlanta Center
20:09 31.8281 -84.0292 350° North 437 503 36,000  Level Atlanta Center
20:10 31.9492 -84.0558 349° North 432 497 36,000  Level Atlanta Center
20:11 32.0533 -84.0781 350° North 427 491 36,000  Level Atlanta Center
20:12 32.1725 -84.1025 350° North 427 491 36,000  Level Atlanta Center
20:13 32.2933 -84.1322 348° North 427 491 36,000  Level Atlanta Center
20:14 32.4144 -84.1594 349° North 427 491 36,000  Level Atlanta Center
20:15 32.5356 -84.1867 349° North 427 491 36,000  Level Atlanta Center
20:16 32.6544 -84.2139 349° North 427 491 36,000  Level Atlanta Center
20:17 32.7756 -84.2439 348° North 432 497 36,000  Level Atlanta Center
20:18 32.8964 -84.2689 350° North 432 497 36,000  Level Atlanta Center
20:19 33.0133 -84.2989 348° North 432 497 36,000  Level Atlanta Center
20:20 33.1364 -84.3267 349° North 432 497 36,000  Level Atlanta Center
20:21 33.2511 -84.3517 350° North 432 497 36,000  Level Atlanta Center
20:22 33.3700 -84.3797 349° North 432 497 36,000  Level Atlanta Center
20:23 33.4869 -84.4050 350° North 431 496 36,000  Level Atlanta Center
20:24 33.6017 -84.4328 349° North 426 490 36,000  Level Atlanta Center
20:25 33.7225 -84.4608 349° North 431 496 36,000  Level Atlanta Center
20:26 33.8372 -84.4864 350° North 425 489 36,000  Level Atlanta Center
20:27 33.9583 -84.5147 349° North 434 499 36,000  Level Atlanta Center
20:28 34.0728 -84.5453 348° North 434 499 36,000  Level Atlanta Center
20:29 34.1939 -84.5736 349° North 434 499 36,000  Level Atlanta Center
20:30 34.3083 -84.6122 344° North 425 489 36,000  Level Atlanta Center
20:31 34.4019 -84.6908 325° Northwest 407 468 36,000  Level Atlanta Center
20:32 34.4975 -84.7672 327° Northwest 412 474 36,000  Level Atlanta Center
20:33 34.5992 -84.8539 325° Northwest 413 475 36,000  Level Atlanta Center
20:34 34.6781 -84.9203 325° Northwest 413 475 36,000  Level Atlanta Center
20:35 34.7756 -85.0022 325° Northwest 407 468 36,000  Level Atlanta Center
20:36 34.8708 -85.0819 326° Northwest 407 468 36,000  Level Atlanta Center
20:37 34.9642 -85.1589 326° Northwest 407 468 36,000  Level Atlanta Center
20:38 35.0508 -85.2517 319° Northwest 412 474 36,000  Level Atlanta Center
20:40 35.2250 -85.4464 318° Northwest 426 490 36,000  Level Memphis Center
20:41 35.3122 -85.5406 319° Northwest 426 490 36,000  Level Memphis Center
20:42 35.3972 -85.6347 318° Northwest 421 484 36,000  Level Memphis Center
20:43 35.4842 -85.7319 318° Northwest 421 484 36,000  Level Memphis Center
20:44 35.5711 -85.8239 319° Northwest 416 479 36,000  Level Memphis Center
20:45 35.6578 -85.9164 319° Northwest 411 473 36,000  Level Memphis Center
20:46 35.7425 -86.0117 318° Northwest 411 473 36,000  Level Memphis Center
20:47 35.8272 -86.1094 317° Northwest 406 467 36,000  Level Memphis Center
20:48 35.9203 -86.2097 319° Northwest 406 467 36,000  Level Memphis Center
20:49 36.0050 -86.3081 317° Northwest 406 467 36,000  Level Memphis Center
20:50 36.0892 -86.4042 317° Northwest 406 467 36,000  Level Memphis Center
20:51 36.1736 -86.5003 317° Northwest 412 474 36,000  Level Memphis Center
20:52 36.2578 -86.5942 318° Northwest 407 468 36,000  Level Memphis Center
20:53 36.3419 -86.6881 318° Northwest 407 468 36,000  Level Memphis Center
20:54 36.4281 -86.7875 317° Northwest 417 480 36,000  Level Memphis Center
20:55 36.5122 -86.8844 317° Northwest 417 480 36,000  Level Memphis Center
20:56 36.5961 -86.9817 317° Northwest 412 474 36,000  Level Memphis Center
20:57 36.6781 -87.0789 316° Northwest 412 474 36,000  Level Memphis Center
20:58 36.7575 -87.1742 316° Northwest 407 468 36,000  Level Memphis Center
20:59 36.7836 -87.3000 285° West 383 441 36,000  Level Memphis Center
21:00 36.7806 -87.4272 268° West 355 409 36,000  Level Memphis Center
21:01 36.8144 -87.5478 289° West 371 427 36,000  Level Memphis Center
21:02 36.9019 -87.6356 321° Northwest 371 427 36,000  Level Memphis Center
21:03 36.9892 -87.7233 321° Northwest 392 451 36,000  Level Memphis Center
21:04 37.0828 -87.8139 322° Northwest 408 470 36,000  Level Memphis Center
21:05 37.1617 -87.8919 322° Northwest 418 481 36,000  Level Memphis Center
21:06 37.2486 -87.9806 321° Northwest 408 470 36,000  Level Memphis Center
21:07 37.3483 -88.0742 323° Northwest 413 475 36,000  Level Memphis Center
21:09 37.5172 -88.2419 322° Northwest 393 452 36,000  Level Kansas City Center
21:10 37.6036 -88.3289 321° Northwest 393 452 36,000  Level Kansas City Center
21:11 37.6906 -88.4150 322° Northwest 394 453 36,000  Level Kansas City Center
21:12 37.7758 -88.5014 321° Northwest 393 452 36,000  Level Kansas City Center
21:13 37.8611 -88.5881 321° Northwest 391 450 36,000  Level Kansas City Center
21:14 37.9458 -88.6722 322° Northwest 388 447 36,000 -180 Level Kansas City Center
21:15 38.0389 -88.7658 322° Northwest 388 447 35,700 -600 Descending Kansas City Center
21:16 38.1594 -88.7736 357° North 423 487 34,800 -960 Descending Kansas City Center
21:17 38.2806 -88.7714 North 433 498 33,800 -960 Descending Kansas City Center
21:18 38.4178 -88.7700 360° North 437 503 32,900 -900 Descending Kansas City Center
21:19 38.5469 -88.7669 North 454 522 32,000 -480 Descending Kansas City Center
21:20 38.6869 -88.7647 North 466 536 32,000 -180 Level Kansas City Center
21:21 38.8172 -88.7617 North 469 540 31,700 -660 Descending Kansas City Center
21:22 38.9431 -88.7608 360° North 461 531 30,700 -1,080 Descending Kansas City Center
21:23 39.0667 -88.7608 360° North 455 524 29,600 -1,380 Descending Kansas City Center
21:24 39.1867 -88.7592 North 447 514 27,900 -1,560 Descending Kansas City Center
21:25 39.3031 -88.7567 North 437 503 26,400 -1,680 Descending Kansas City Center
21:26 39.4281 -88.7531 North 423 487 24,600 -1,920 Descending Kansas City Center
21:27 39.5403 -88.7517 North 406 467 22,500 -1,260 Descending Kansas City Center
21:28 39.6481 -88.7503 North 394 453 22,000 -300 Descending Kansas City Center
21:29 39.7539 -88.7486 North 385 443 22,000  Level Kansas City Center
21:30 39.8611 -88.7472 North 384 442 22,000  Level Kansas City Center
21:31 39.9911 -88.7450 North 388 447 22,000  Level Kansas City Center
21:32 40.0986 -88.7447 360° North 388 447 22,000  Level Kansas City Center
21:33 40.2064 -88.7414 North 388 447 22,000  Level Kansas City Center
21:34 40.3108 -88.7406 360° North 383 441 22,000 -180 Level Chicago Center
21:35 40.4153 -88.7403 360° North 378 435 21,700 -1,200 Descending Chicago Center
21:36 40.5236 -88.7436 359° North 354 407 19,600 -1,860 Descending Chicago Center
21:37 40.6106 -88.7844 340° North 333 383 17,900 -1,320 Descending Chicago Center
21:38 40.6936 -88.8294 338° Northwest 327 376 16,900 -840 Descending Chicago Center
21:40 40.7881 -88.8611 346° North 323 372 16,300 -1,020 Descending Chicago Center
21:41 40.8778 -88.8686 356° North 336 387 14,800 -1,380 Descending Chicago Center
21:42 40.9492 -88.8089 32° Northeast 337 388 13,500 -1,620 Descending Chicago Center
21:43 41.0431 -88.7314 32° Northeast 333 383 11,600 -1,680 Descending Chicago Center
21:44 41.1200 -88.6703 31° Northeast 326 375 10,100 -1,200 Descending Chicago Center
21:45 41.1914 -88.6097 33° Northeast 311 358 9,200 -960 Descending Chicago Center
21:46 41.2606 -88.5539 31° Northeast 296 341 8,200 -1,200 Descending Chicago Center
21:47 41.3206 -88.4842 41° Northeast 293 337 6,800 -1,080 Descending Chicago Center
21:48 41.3714 -88.3964 52° Northeast 298 343 6,000 -420 Descending Chicago Center
21:49 41.4214 -88.3136 51° Northeast 292 336 6,000 -360 Level Chicago Center
21:50 41.4706 -88.2283 52° Northeast 288 331 5,300 -1,020 Descending Chicago Center
21:51 41.5200 -88.1433 52° Northeast 287 330 4,000 -1,140 Descending Chicago Center
21:52 41.5786 -88.0450 51° Northeast 282 325 3,000 -540 Descending Chicago Center
21:53 41.6253 -87.9667 51° Northeast 276 318 3,000  Level Chicago Center
21:54 41.6658 -87.8997 51° Northeast 252 290 3,000 -60 Level Chicago Center
21:55 41.7000 -87.8667 36° Northeast 205 236 2,900 -660 Descending Chicago TRACON
21:56 41.7333 -87.8167 48° Northeast 172 198 1,900 -900 Descending Chicago TRACON
21:57 41.7667 -87.7833 37° Northeast 128 147 1,200 -720 Descending Chicago TRACON
21:59 41.7833 -87.7500 47° Northeast  Level FlightAware Approximate